Weather Roundup
Issued by NWS Springfield, MO

Home | Current Version | Previous Version | Graphics & Text | Print | Product List | Glossary On
Versions: 1 2 3 4 5 6 7 8 9 10 11 12 13 14 15 16 17 18 19 20 21 22 23 24 25 26 27 28 29 30 31 32 33 34 35 36 37 38 39 40 41 42 43 44 45 46 47 48 49 50
000
NZUS99 KSGF 121507
HRRSGF

HOURLY WEATHER
NATIONAL WEATHER SERVICE SPRINGFIELD MO
900 AM CST TUE DEC 12 2017

......SGF CWA......

CITY           SKY/WX    TMP DP  RH WIND       PRES   REMARKS
SPRINGFIELD    SUNNY     28  19  69 N15       30.30R WCI  16
JOPLIN         SUNNY     28  21  75 NW12      30.37R WCI  18
WEST PLAINS    SUNNY     30  19  63 NW14G24   30.25R WCI  19
ROLLA          SUNNY     25  17  72 NW10G21   30.26S WCI  15
OSAGE BEACH    SUNNY     25  17  72 NW6       30.32S WCI  18
BRANSON        SUNNY     30  21  69 NW13      30.29R WCI  20

......SURROUNDING SGF CWA......

CITY           SKY/WX    TMP DP  RH WIND       PRES   REMARKS
CHANUTE        SUNNY     30  19  63 N9        30.38R WCI  22
PARSONS        SUNNY     31  23  72 N9        30.40R WCI  23
COFFEYVILLE    SUNNY     33  22  63 N13       30.40R WCI  24
EMPORIA        SUNNY     27  20  75 W6        30.38R WCI  20
GROVE OK       SUNNY     34  25  69 N10       30.38R WCI  26
ROGERS AR      SUNNY     30  20  66 NW12      30.33R WCI  20
SILOAM SPRINGS SUNNY     32  22  66 N14       30.35R WCI  22
HARRISON AR    SUNNY     31  22  69 NW13G18   30.28R WCI  21
NEAR YELLVILLE SUNNY     35  23  61 NW12G20   30.30R WCI  27

......KANSAS AND MISSOURI......

CITY           SKY/WX    TMP DP  RH WIND       PRES   REMARKS
KANSAS CTY INT MOSUNNY   23  15  71 NW7       30.34S WCI  15
DOWNTOWN KC    SUNNY     25  16  68 NW6       30.36S WCI  18
COLUMBIA       SUNNY     24  15  68 NW12      30.29R WCI  13
SEDALIA        SUNNY     24  16  71 NW13      30.33S WCI  12
ST JOSEPH      SUNNY     22  17  81 NW8       30.36R WCI  12
ST LOUIS       MOSUNNY   29  19  66 NW17      30.24R WCI  17
SPIRIT OF STL  MOSUNNY   28  18  66 NW14G26   30.26R WCI  17
KIRKSVILLE     SUNNY     20  11  68 W12       30.28R WCI   8
WICHITA        SUNNY     32  27  81 NW6       30.40R WCI  26
TOPEKA         SUNNY     25  17  72 W7        30.38S WCI  17
OLATHE         SUNNY     23  16  74 NW8       30.34S WCI  14

......TENNESSEE......

CITY           SKY/WX    TMP DP  RH WIND       PRES   REMARKS
MEMPHIS        SUNNY     45  30  55 N15G29    30.19R
NASHVILLE      CLOUDY    41  30  65 NW16G25   30.06R

......ARKANSAS.......

CITY           SKY/WX    TMP DP  RH WIND       PRES   REMARKS
FAYETTEVILLE   SUNNY     32  23  69 N7        30.32R WCI  26
FT SMITH       SUNNY     39  21  48 NW8       30.36R WCI  33
LITTLE ROCK    SUNNY     43  24  47 NW20G26   30.28R

......OKLAHOMA.......

CITY           SKY/WX    TMP DP  RH WIND       PRES   REMARKS
TULSA          SUNNY     36  25  64 NW12      30.42R WCI  28
PONCA CITY     SUNNY     32  25  75 W6        30.43R WCI  26
MCALESTER      SUNNY     40  28  62 N10       30.40R WCI  33
OKLAHOMA CITY  MOSUNNY   37  27  67 N14       30.42R WCI  28

......IOWA............

CITY           SKY/WX    TMP DP  RH WIND       PRES   REMARKS
DES MOINES     MOSUNNY   17   9  70 NW14      30.29R WCI   3
QUAD CITIES    MOSUNNY   20  12  71 NW15      30.20R WCI   6

......ILLINOIS........

CITY           SKY/WX    TMP DP  RH WIND       PRES   REMARKS
QUINCY         SUNNY     22  13  68 NW16      30.24R WCI   8
CHICAGO        MOSUNNY   18   6  59 NW20G29   30.09R WCI   2



USA.gov is the U.S. government's official web portal to all federal, state and local government web resources and services.